Location: Hanover
(52.3667°N, 9.7167°E)
Time: 05:05:28
(UTC+02:00)

ARIANE 6 FM1 Upper Stage - Pass Details

Date: 28 September 2024
Orbit: 564 x 594 km, 62.0° (Epoch: 06 October)

Event Time Altitude Azimuth Distance (km) Brightness Sun altitude
Rises 20:51:26 0° 254° (WSW) 2,791 7.1 -16.9°
Reaches altitude 10° 20:53:46 10° 262° (W) 1,900 6.3 -17.3°
Maximum altitude 20:57:50 40° 332° (NNW) 871 4.0 -17.9°
Enters shadow 21:01:52 11° 43° (NE) 1,892 5.1 -18.4°
